TimeEST,TemperatureF,Dew PointF,Humidity,Sea Level PressureIn,VisibilityMPH,Wind Direction,Wind SpeedMPH,Gust SpeedMPH,PrecipitationIn,Events,Conditions,WindDirDegrees,DateUTC
12:15 AM,33.8,23.0,65,30.16,10.0,NE,4.6,-,N/A,,Overcast,40,2013-02-26 05:15:00
12:35 AM,33.8,23.0,65,30.16,10.0,NE,4.6,-,N/A,,Overcast,40,2013-02-26 05:35:00
12:55 AM,33.8,23.0,65,30.13,10.0,ENE,6.9,-,N/A,,Overcast,60,2013-02-26 05:55:00
1:15 AM,33.8,23.0,65,30.12,10.0,NE,8.1,-,N/A,,Overcast,40,2013-02-26 06:15:00
1:35 AM,33.8,23.0,65,30.12,10.0,ENE,6.9,-,N/A,,Overcast,60,2013-02-26 06:35:00
1:55 AM,33.8,23.0,65,30.12,10.0,ENE,4.6,-,N/A,,Overcast,70,2013-02-26 06:55:00
2:15 AM,33.8,23.0,65,30.12,10.0,ENE,5.8,-,N/A,,Overcast,60,2013-02-26 07:15:00
2:35 AM,33.8,23.0,65,30.11,10.0,NE,5.8,-,N/A,,Overcast,50,2013-02-26 07:35:00
2:55 AM,33.8,24.8,70,30.10,10.0,NE,6.9,-,N/A,,Drizzle,40,2013-02-26 07:55:00
3:15 AM,32.0,26.6,80,30.09,7.0,ENE,11.5,16.1,N/A,,Light Drizzle,60,2013-02-26 08:15:00
3:35 AM,32.0,28.4,87,30.08,5.0,NE,9.2,-,N/A,,Overcast,40,2013-02-26 08:35:00
3:55 AM,32.0,30.2,93,30.07,3.0,NE,6.9,-,N/A,,Overcast,50,2013-02-26 08:55:00
4:15 AM,32.0,30.2,93,30.09,2.5,NE,6.9,-,N/A,,Overcast,50,2013-02-26 09:15:00
4:35 AM,32.0,30.2,93,30.08,3.0,NE,8.1,-,N/A,,Overcast,50,2013-02-26 09:35:00
4:55 AM,32.0,30.2,93,30.08,3.0,NE,9.2,-,N/A,,Overcast,40,2013-02-26 09:55:00
5:15 AM,32.0,30.2,93,30.06,3.0,NE,11.5,20.7,N/A,,Overcast,40,2013-02-26 10:15:00
5:35 AM,32.0,30.2,93,30.05,3.0,NE,15.0,21.9,N/A,,Overcast,40,2013-02-26 10:35:00
5:55 AM,32.0,30.2,93,30.05,5.0,ENE,10.4,16.1,N/A,,Overcast,60,2013-02-26 10:55:00
6:15 AM,32.0,30.2,93,30.04,4.0,NE,10.4,-,N/A,Rain,Light Rain,50,2013-02-26 11:15:00
6:35 AM,32.0,30.2,93,30.03,3.0,NE,9.2,21.9,0.02,Rain,Rain,50,2013-02-26 11:35:00
6:55 AM,32.0,30.2,93,30.01,4.0,NE,9.2,16.1,0.04,Snow,Snow,50,2013-02-26 11:55:00
7:15 AM,32.0,30.2,93,30.01,5.0,NE,8.1,18.4,0.02,Rain,Rain,50,2013-02-26 12:15:00
7:35 AM,32.0,30.2,93,29.99,3.0,ENE,11.5,17.3,0.04,Rain,Light Rain,70,2013-02-26 12:35:00
7:55 AM,32.0,32.0,100,30.00,2.0,East,8.1,-,0.07,,Overcast,80,2013-02-26 12:55:00
8:15 AM,32.0,32.0,100,29.98,2.0,ENE,6.9,-,0.03,,Overcast,60,2013-02-26 13:15:00
8:35 AM,32.0,32.0,100,29.97,3.0,NE,6.9,-,0.06,Rain,Rain,50,2013-02-26 13:35:00
8:55 AM,32.0,32.0,100,29.95,4.0,ENE,10.4,-,0.08,Rain,Light Rain,60,2013-02-26 13:55:00
9:15 AM,32.0,32.0,100,29.93,4.0,ENE,8.1,-,0.01,Rain,Light Rain,60,2013-02-26 14:15:00
9:35 AM,32.0,32.0,100,29.94,2.0,East,6.9,-,0.06,Rain,Rain,90,2013-02-26 14:35:00
9:55 AM,32.0,32.0,100,29.89,1.5,ENE,10.4,-,0.11,Rain,Light Rain,60,2013-02-26 14:55:00
10:15 AM,32.0,32.0,100,29.89,1.2,East,6.9,-,0.06,Snow,Light Snow,80,2013-02-26 15:15:00
10:35 AM,32.0,32.0,100,29.86,2.0,ENE,9.2,-,0.10,Rain,Rain,60,2013-02-26 15:35:00
10:55 AM,32.0,32.0,100,29.86,3.0,ENE,6.9,-,0.12,Rain,Rain,70,2013-02-26 15:55:00
11:15 AM,32.0,32.0,100,29.86,2.0,ENE,4.6,-,0.05,Rain,Light Rain,70,2013-02-26 16:15:00
11:35 AM,32.0,32.0,100,29.85,1.2,ENE,4.6,-,0.09,Rain,Rain,60,2013-02-26 16:35:00
11:55 AM,32.0,32.0,100,29.84,3.0,NE,3.5,-,0.12,,Drizzle,50,2013-02-26 16:55:00
12:15 PM,32.0,32.0,100,29.81,2.0,NE,6.9,-,0.03,Rain,Heavy Rain,50,2013-02-26 17:15:00
12:35 PM,32.0,32.0,100,29.78,3.0,NE,8.1,-,0.07,Rain,Rain,50,2013-02-26 17:35:00
12:55 PM,32.0,32.0,100,29.77,3.0,ENE,6.9,-,0.13,,Drizzle,60,2013-02-26 17:55:00
1:15 PM,33.8,32.0,93,29.75,1.8,NE,4.6,-,0.08,Rain,Light Rain,50,2013-02-26 18:15:00
1:35 PM,33.8,33.8,100,29.73,1.5,ENE,5.8,-,0.15,Rain,Light Rain,60,2013-02-26 18:35:00
1:55 PM,33.8,33.8,100,29.71,1.5,ENE,8.1,-,0.19,Rain,Light Rain,70,2013-02-26 18:55:00
2:15 PM,33.8,33.8,100,29.71,2.5,NNE,3.5,-,0.04,Rain,Light Rain,20,2013-02-26 19:15:00
2:35 PM,35.6,33.8,93,29.69,3.0,NE,4.6,-,0.08,Rain,Rain,50,2013-02-26 19:35:00
2:55 PM,35.6,35.6,100,29.71,2.5,WSW,5.8,-,0.11,Rain,Rain,250,2013-02-26 19:55:00
3:15 PM,35.6,35.6,100,29.69,3.0,Calm,Calm,-,0.01,Rain,Rain,0,2013-02-26 20:15:00
3:35 PM,35.6,35.6,100,29.68,7.0,Calm,Calm,-,0.01,,Light Drizzle,0,2013-02-26 20:35:00
3:55 PM,35.6,35.6,100,29.66,3.0,Calm,Calm,-,0.01,Rain,Rain,0,2013-02-26 20:55:00
4:15 PM,37.4,35.6,93,29.66,2.5,Calm,Calm,-,N/A,,Light Drizzle,0,2013-02-26 21:15:00
4:35 PM,37.4,37.4,100,29.66,3.0,Calm,Calm,-,N/A,,Overcast,0,2013-02-26 21:35:00
4:55 PM,37.4,37.4,100,29.64,4.0,Calm,Calm,-,N/A,,Overcast,0,2013-02-26 21:55:00
5:15 PM,35.6,35.6,100,29.63,0.8,East,3.5,-,N/A,,Overcast,100,2013-02-26 22:15:00
5:35 PM,35.6,35.6,100,29.64,0.2,SSW,6.9,-,N/A,Fog,Fog,210,2013-02-26 22:35:00
5:55 PM,35.6,35.6,100,29.63,0.2,Calm,Calm,-,N/A,Fog,Fog,0,2013-02-26 22:55:00
6:15 PM,35.6,35.6,100,29.65,2.0,WSW,5.8,-,N/A,,Overcast,250,2013-02-26 23:15:00
6:35 PM,35.6,35.6,100,29.65,2.5,Calm,Calm,-,N/A,,Overcast,0,2013-02-26 23:35:00
6:55 PM,35.6,35.6,100,29.66,2.0,West,4.6,-,N/A,,Overcast,260,2013-02-26 23:55:00
7:15 PM,35.6,35.6,100,29.67,2.5,Calm,Calm,-,N/A,,Overcast,0,2013-02-27 00:15:00
7:35 PM,35.6,35.6,100,29.67,2.5,South,4.6,-,N/A,,Overcast,190,2013-02-27 00:35:00
7:55 PM,35.6,35.6,100,29.66,1.2,Calm,Calm,-,N/A,,Overcast,0,2013-02-27 00:55:00
8:15 PM,35.6,35.6,100,29.67,0.8,Calm,Calm,-,N/A,,Overcast,0,2013-02-27 01:15:00
8:35 PM,35.6,35.6,100,29.67,0.8,Calm,Calm,-,N/A,,Overcast,0,2013-02-27 01:35:00
8:55 PM,35.6,35.6,100,29.67,0.5,Calm,Calm,-,N/A,Fog,Fog,0,2013-02-27 01:55:00
9:15 PM,35.6,35.6,100,29.67,0.5,Calm,Calm,-,N/A,Fog,Fog,0,2013-02-27 02:15:00
9:35 PM,35.6,35.6,100,29.68,0.5,Calm,Calm,-,N/A,Fog,Fog,0,2013-02-27 02:35:00
9:55 PM,35.6,35.6,100,29.68,0.8,Calm,Calm,-,N/A,,Overcast,0,2013-02-27 02:55:00
10:15 PM,35.6,35.6,100,29.67,0.5,Calm,Calm,-,N/A,Fog,Fog,0,2013-02-27 03:15:00
10:35 PM,35.6,35.6,100,29.67,0.2,South,5.8,-,N/A,Fog,Fog,190,2013-02-27 03:35:00
10:55 PM,35.6,35.6,100,29.67,0.2,Calm,Calm,-,N/A,Fog,Fog,0,2013-02-27 03:55:00
11:15 PM,35.6,35.6,100,29.66,0.2,Calm,Calm,-,N/A,Fog,Fog,0,2013-02-27 04:15:00
11:35 PM,35.6,35.6,100,29.67,0.5,Calm,Calm,-,N/A,Fog,Fog,0,2013-02-27 04:35:00
11:55 PM,35.6,35.6,100,29.67,0.2,Calm,Calm,-,N/A,Fog,Fog,0,2013-02-27 04:55:00